Temperature
5 5 5 5 5 4 4 4 4 4 4 6 7 7 7 7 6 6 5 5 4 4 5 5 5 5 5 5 5 6 6 6 6 6 6 6 6 6 6 6 6 5 5 4
5 6 5 5 5 5 5 5 5 5 5 7 7 8 7 7 5 4 4 3 3 3 4 4 4 4 4 4 4 5 5 5 5 5 5 4 4 4 4 4 3 3 3 2
5 5 6 5 5 5 5 5 5 6 6 7 7 7 7 6 5 4 3 3 2 2 3 3 3 3 3 3 3 3 4 3 3 3 3 3 3 2 2 2 1 1 1 1
5 6 5 7 8 6 6 6 6 6 7 7 8 7 6 6 4 3 3 2 2 2 2 2 2 2 2 2 2 2 2 2 2 2 2 1 1 1 0 0 0 0 0 0
5 5 5 7 7 6 6 7 7 7 7 8 7 6 5 5 4 3 2 1 1 1 1 1 1 1 1 1 1 1 1 0 0 0 0 0 -0 -0 -0 -0 -0 -0 -0 -0
5 5 5 7 8 8 8 8 9 8 7 7 6 6 5 4 3 2 1 1 1 1 0 0 0 0 0 0 0 -0 -0 -0 -0 -0 -0 -0 -0 -1 -1 -0 -0 -0 -1 -1
5 5 5 6 8 8 8 8 9 9 8 7 6 6 5 4 3 2 1 1 0 0 0 -0 -0 -0 -0 -0 -1 -1 -1 -1 -1 -1 -1 -1 -1 -1 -1 -0 -1 -1 -1 -1
5 5 5 7 7 7 8 9 9 8 8 7 6 6 4 4 3 2 1 0 -0 -0 -0 -1 -1 -1 -1 -1 -1 -1 -1 -1 -1 -1 -0 -1 -1 -1 -1 -1 -1 -1 -2 -2
5 6 7 8 8 9 9 8 8 8 8 7 6 5 4 3 3 2 1 0 -0 -0 -1 -1 -1 -1 -1 -1 -1 -1 -1 -1 -1 -0 -0 -1 -1 -1 -1 -2 -2 -2 -2 -3
5 5 7 8 9 9 9 8 8 8 7 7 6 5 4 3 3 2 1 1 -0 -0 -0 -1 -0 -0 -0 -0 -0 -0 -0 -0 -1 -0 -1 -1 -1 -1 -2 -2 -2 -2 -3 -3
5 6 7 8 8 8 8 8 8 7 7 6 6 5 4 4 3 2 2 1 1 0 0 0 0 0 0 0 -0 -0 -0 -0 -0 -1 -1 -1 -1 -2 -2 -2 -3 -3 -4 -4
6 6 6 7 8 8 7 7 7 7 7 6 5 5 4 4 3 3 2 2 1 1 1 1 0 0 0 0 -0 -0 -0 -0 -1 -1 -1 -2 -2 -2 -3 -3 -3 -4 -4 -5
6 6 6 7 7 7 6 6 6 6 6 6 5 4 4 4 3 3 2 2 2 1 1 1 1 0 0 0 -0 -0 -1 -1 -1 -1 -2 -2 -2 -3 -3 -3 -4 -4 -5 -5
5 5 5 6 6 6 6 6 6 5 5 5 4 4 3 3 3 3 2 2 2 2 1 1 1 0 0 -0 -0 -1 -1 -1 -1 -2 -2 -2 -3 -3 -3 -4 -4 -5 -5 -6
4 4 4 4 4 5 5 5 5 5 4 4 3 3 3 3 3 2 2 2 2 1 1 1 1 0 0 -0 -1 -1 -1 -1 -2 -2 -2 -3 -3 -3 -4 -4 -5 -6 -6 -7
3 3 3 3 3 3 3 3 4 4 3 3 3 2 2 2 2 2 1 1 2 2 1 1 1 0 0 -0 -1 -1 -1 -2 -2 -2 -3 -3 -3 -4 -4 -5 -6 -6 -7 -7
1 1 2 2 2 3 3 3 3 3 3 3 2 2 2 1 1 1 1 1 1 1 1 1 0 0 -0 -1 -1 -1 -2 -2 -2 -3 -3 -3 -4 -5 -5 -6 -6 -7 -7 -8
0 1 1 1 1 2 2 2 2 3 3 2 2 2 1 1 1 1 1 1 1 1 0 0 -0 -0 -0 -1 -1 -2 -2 -2 -3 -3 -4 -4 -4 -5 -6 -6 -7 -7 -8 -8
0 1 1 1 2 2 2 2 2 2 2 2 2 1 1 1 1 1 0 0 1 1 0 -0 -0 -1 -1 -1 -2 -2 -2 -3 -3 -4 -4 -4 -5 -6 -6 -7 -7 -8 -8 -8
0 1 1 1 2 2 2 2 2 2 2 1 1 1 0 0 0 0 0 0 1 1 0 -0 -1 -1 -1 -1 -2 -2 -3 -3 -3 -4 -4 -5 -5 -6 -7 -7 -8 -8 -8 -8
0 1 1 1 2 2 2 2 2 1 1 1 1 1 0 0 0 -0 0 0 0 -0 -0 -0 -1 -1 -2 -2 -2 -3 -3 -3 -4 -4 -5 -5 -6 -6 -7 -7 -8 -8 -8 -9
-0 0 0 1 1 1 1 1 1 1 1 0 0 0 -0 -0 -0 -0 0 0 0 -0 -0 -1 -1 -1 -2 -2 -3 -3 -3 -4 -4 -5 -5 -6 -6 -7 -7 -8 -8 -8 -8 -9
-0 -0 -0 0 0 0 0 0 0 0 0 0 0 0 0 0 -0 0 0 0 -0 -0 -1 -1 -1 -2 -2 -2 -3 -3 -4 -4 -4 -5 -5 -6 -6 -7 -7 -8 -8 -8 -8 -9
-1 -0 -0 -0 -0 -0 -0 -0 -0 -0 -0 -0 -0 -0 -0 -0 -0 -0 -0 -0 -1 -1 -1 -1 -2 -2 -2 -3 -3 -4 -4 -4 -5 -5 -6 -6 -7 -7 -7 -8 -8 -8 -8 -9
-1 -1 -1 -1 -1 -1 -1 -1 -1 -1 -1 -1 -1 -1 -1 -0 -0 -0 -0 -1 -1 -1 -1 -2 -2 -2 -3 -3 -3 -4 -4 -5 -5 -5 -6 -6 -7 -7 -8 -8 -8 -8 -8 -9
-1 -2 -2 -2 -2 -2 -2 -2 -1 -1 -1 -1 -1 -1 -1 -1 -1 -1 -1 -1 -1 -2 -2 -2 -2 -3 -3 -3 -4 -4 -4 -5 -5 -6 -6 -7 -7 -7 -8 -8 -8 -8 -8 -8
-2 -2 -2 -2 -2 -2 -2 -2 -2 -2 -2 -2 -2 -2 -2 -2 -2 -2 -2 -2 -2 -2 -2 -3 -3 -3 -3 -4 -4 -4 -5 -5 -5 -6 -6 -7 -7 -7 -8 -8 -8 -8 -8 -8
Wind_Speed
2 2 5 5 7 10 8 8 8 7 7 11 10 10 9 6 5 6 6 7 8 8 8 8 8 8 8 8 8 7 8 9 9 9 10 11 12 12 13 13 14 15 15 15
1 1 4 5 8 11 10 9 10 9 11 13 9 5 6 5 5 6 6 7 7 7 7 7 7 7 7 7 8 8 10 11 11 12 13 13 13 14 14 14 14 15 14 14
1 2 0 6 10 13 8 7 9 12 12 9 9 9 6 4 3 4 5 5 6 6 5 6 5 5 6 6 7 9 10 11 11 12 13 14 14 14 14 14 14 14 13 13
0 1 5 6 2 8 9 8 10 9 9 8 8 6 3 2 2 2 3 3 4 4 4 4 5 5 6 7 8 10 10 11 11 12 13 13 14 13 12 11 12 12 11 11
1 2 6 7 3 6 6 6 8 12 13 9 4 3 3 2 2 1 1 2 2 3 4 5 5 6 7 8 8 9 9 9 10 11 12 12 12 12 10 11 10 9 9 9
2 2 5 4 1 3 4 2 3 6 8 6 1 3 3 4 4 3 3 3 4 5 6 6 6 6 8 8 9 9 9 9 9 10 11 11 11 10 9 9 9 9 9 8
3 4 7 7 3 3 2 2 2 3 5 4 5 4 3 6 4 4 4 5 5 6 6 5 5 7 9 8 9 8 8 9 10 10 10 10 10 9 9 9 9 9 8 7
5 5 7 3 4 5 4 2 2 3 3 3 3 4 6 6 6 5 5 5 5 6 6 5 6 7 8 8 6 7 8 9 9 9 8 8 9 9 8 8 8 7 7 6
7 7 5 3 5 5 3 4 4 3 2 3 4 6 7 6 6 6 6 5 5 6 6 5 5 6 8 6 6 8 9 9 9 9 8 8 8 7 6 6 5 5 5 4
5 7 7 7 6 5 4 4 3 3 3 4 5 7 8 8 7 7 6 6 5 6 6 5 5 6 6 6 7 8 9 8 7 8 8 7 6 5 5 5 5 4 4 3
5 6 7 5 3 3 2 2 2 2 3 5 6 7 8 8 8 8 7 6 6 6 7 6 6 6 6 6 7 8 8 7 7 7 7 7 6 5 5 3 4 4 2 2
5 4 3 5 4 3 3 3 3 2 2 3 6 8 9 9 8 8 8 7 7 7 7 7 6 6 6 6 7 8 7 6 5 5 5 5 5 5 8 7 8 7 4 2
3 3 4 6 4 2 3 3 2 3 3 3 4 7 9 8 9 9 9 9 8 8 8 8 7 6 5 6 7 7 7 6 5 5 5 4 4 4 3 5 7 8 8 7
3 4 4 4 4 5 3 2 1 0 1 3 5 7 8 8 9 9 9 9 9 9 8 8 7 6 5 7 7 7 7 7 6 4 4 4 3 3 3 2 3 3 6 8
4 5 6 6 5 4 2 1 1 1 2 3 5 7 9 10 10 9 8 9 9 9 8 8 8 6 6 7 8 8 6 5 5 4 4 4 4 3 3 3 2 2 3 4
8 7 5 5 5 4 3 3 4 4 4 5 6 7 8 8 9 9 9 10 10 10 9 8 7 6 7 8 8 6 5 8 7 5 4 4 3 3 2 2 2 2 3 3
6 6 5 6 7 6 5 6 6 5 6 6 7 8 9 10 9 9 9 8 7 8 8 8 8 7 7 7 7 6 5 6 7 5 3 3 2 2 1 0 1 3 3 5
6 8 8 9 9 8 7 5 5 6 6 6 8 9 10 11 11 10 9 9 9 7 6 7 8 8 7 7 7 6 5 5 4 4 3 2 2 1 0 1 2 3 4 5
7 7 8 8 7 6 6 4 4 4 6 8 9 9 9 8 9 10 10 10 10 9 7 7 12 9 8 8 8 5 6 5 4 3 2 2 2 1 1 2 3 4 4 5
7 7 7 6 5 4 3 1 2 4 6 8 8 8 8 8 9 10 10 8 6 5 8 10 9 8 7 8 9 5 6 5 4 3 2 2 2 2 2 3 3 4 4 5
8 8 8 7 6 4 2 0 2 4 5 7 8 9 9 9 9 9 9 7 5 8 10 13 8 7 7 8 9 6 5 5 4 3 3 2 2 2 3 3 4 4 5 5
8 7 8 7 6 5 3 1 1 3 4 5 6 7 9 9 9 7 6 5 7 12 10 7 7 10 11 10 6 6 5 5 4 3 3 3 3 3 3 4 4 5 5 5
6 6 7 6 5 4 3 2 1 3 4 5 7 8 8 8 8 7 6 5 8 13 9 7 11 15 14 8 6 6 5 5 4 4 3 3 3 3 4 5 5 5 5 6
6 6 6 6 4 3 3 3 1 1 2 3 5 7 7 7 5 4 4 11 14 14 8 11 16 16 13 6 6 5 5 4 4 3 3 3 3 4 4 5 5 5 6 7
6 6 5 6 5 3 3 2 1 0 1 2 3 5 5 5 5 5 6 9 15 14 8 12 17 15 9 6 6 5 5 4 4 4 4 3 4 4 4 5 5 6 6 6
5 5 5 5 4 4 3 2 2 1 2 2 2 3 4 4 5 6 6 8 10 12 9 7 9 10 7 6 6 5 5 4 3 3 4 4 4 4 5 5 6 6 6 6
5 4 4 4 4 3 3 3 3 3 3 3 3 3 4 5 6 7 8 8 8 8 7 7 7 7 6 6 5 5 4 4 3 3 3 4 4 4 5 6 6 5 6 6
Wind_Direction
183 162 159 183 184 182 190 189 199 233 241 269 280 289 296 299 314 324 330 342 345 340 341 348 355 1 6 11 17 35 55 63 67 74 81 85 89 93 96 100 103 105 105 104
7 197 196 220 210 200 210 215 232 257 275 266 271 276 283 293 310 317 329 339 341 344 353 360 2 7 15 23 31 49 63 68 72 79 82 83 86 91 94 96 98 100 103 104
319 319 132 257 220 198 199 205 202 232 246 269 286 288 287 289 295 305 323 333 342 349 358 6 10 20 31 39 47 60 68 73 77 82 85 88 90 90 92 94 96 96 96 98
109 35 246 247 205 182 200 225 212 230 251 265 268 281 273 228 245 289 319 334 349 360 17 25 33 46 54 57 63 69 73 77 83 88 91 92 92 92 92 92 92 93 94 96
153 272 284 295 238 168 179 252 224 230 253 265 278 302 260 167 139 136 13 25 29 39 54 53 54 61 68 67 68 71 74 78 85 93 96 95 94 93 92 93 90 90 91 90
171 247 253 259 310 168 140 271 233 210 243 257 228 290 262 143 121 102 82 74 70 67 68 65 61 71 75 71 71 71 74 79 83 87 92 92 92 91 89 91 90 87 81 77
208 244 266 255 253 145 166 226 287 241 250 235 215 226 144 134 127 117 103 93 87 80 74 70 75 83 82 77 74 76 81 81 81 84 88 91 90 88 90 90 89 86 83 71
187 216 255 251 150 180 222 266 285 275 255 229 206 137 137 143 141 132 117 107 101 94 83 73 81 94 92 84 82 83 85 83 80 79 84 88 90 87 86 92 93 90 87 72
201 221 243 235 217 244 236 257 263 251 243 201 186 175 162 156 152 144 134 126 116 109 98 83 82 99 103 95 94 92 87 84 82 79 76 80 87 91 87 86 92 89 83 74
249 263 265 268 263 260 243 242 254 242 232 195 196 177 165 158 155 148 142 137 130 121 111 100 94 97 103 105 104 98 93 89 86 85 79 71 72 77 86 88 90 88 86 79
250 277 298 294 270 279 278 261 260 256 218 207 188 174 167 163 161 157 150 143 139 134 126 121 114 108 108 111 111 104 98 92 87 84 86 78 74 78 88 84 116 114 119 129
232 250 254 286 316 324 288 281 263 250 236 201 184 173 164 162 160 157 152 146 141 137 133 130 125 119 116 115 116 114 107 98 94 92 89 88 84 71 74 80 79 80 86 80
280 311 266 276 304 330 298 287 264 234 217 196 175 165 159 156 157 154 152 152 151 147 142 137 131 125 122 119 116 116 119 115 106 102 101 99 97 97 81 56 58 51 38 27
10 344 308 313 312 315 296 287 266 236 192 172 159 153 150 149 152 156 159 156 148 143 141 139 134 132 130 124 119 117 116 121 120 114 113 109 103 97 90 69 29 3 5 5
5 334 287 291 298 306 305 245 214 210 171 155 156 157 157 158 161 158 152 147 143 142 144 143 140 140 136 129 125 124 120 117 116 114 109 105 99 88 76 66 46 358 338 342
317 306 294 290 293 294 282 253 238 224 196 182 172 167 161 154 149 146 149 153 154 157 157 153 149 148 141 132 127 123 127 135 129 120 111 102 94 87 73 49 10 337 324 315
316 316 319 310 302 292 271 252 238 222 199 190 178 160 149 145 145 150 154 152 148 148 151 153 150 144 139 137 133 132 128 135 132 119 114 115 110 104 92 340 307 305 300 304
282 283 284 286 286 285 277 257 232 209 195 182 162 156 160 164 166 162 154 141 131 128 139 145 144 140 136 135 133 132 130 126 127 130 128 136 141 147 201 276 291 296 298 307
309 303 301 295 288 280 271 257 225 196 175 164 164 170 172 168 160 156 153 153 156 159 164 156 153 142 138 148 139 130 131 132 131 133 140 162 142 172 254 276 284 288 293 298
333 330 326 324 324 314 298 275 181 167 166 164 163 163 163 162 158 158 162 168 174 164 155 155 146 143 144 152 143 133 139 144 149 153 157 168 195 237 262 276 284 288 290 292
342 343 346 348 346 347 350 29 159 165 165 167 170 172 167 161 161 162 165 172 165 150 155 157 150 148 149 153 147 139 146 151 159 170 183 199 223 246 263 277 289 293 294 295
345 347 350 351 352 353 357 18 139 157 159 164 165 161 160 163 167 170 177 170 161 163 157 153 152 160 162 152 141 148 154 160 167 177 192 208 228 250 265 275 279 285 287 290
343 344 346 347 343 338 350 12 120 170 177 177 175 175 175 174 173 176 182 167 160 167 158 159 166 166 161 150 149 156 162 170 179 190 202 214 228 242 258 270 274 279 284 288
344 345 340 338 341 350 351 345 335 208 189 184 183 179 174 170 177 179 152 166 171 167 161 170 170 168 160 148 155 160 169 179 187 197 207 219 232 244 255 265 273 278 280 283
335 333 338 345 348 338 324 329 347 207 176 181 181 179 177 175 174 168 159 167 172 165 162 174 173 168 156 153 162 168 176 188 197 204 213 226 239 250 258 264 268 276 280 281
329 328 324 319 316 312 310 302 284 250 220 208 194 180 169 154 148 153 159 166 170 167 164 163 164 161 154 161 167 173 181 199 215 215 218 233 246 254 261 267 272 273 276 279
322 322 322 324 327 325 313 293 274 254 231 219 215 190 174 165 161 162 163 165 164 161 158 156 151 150 156 162 168 175 183 193 205 218 229 238 247 254 261 267 271 274 279 281
Height
1465 1465 1467 1468 1471 1474 1477 1479 1483 1475 1473 1460 1456 1454 1452 1450 1448 1446 1444 1442 1439 1437 1434 1432 1429 1426 1424 1421 1419 1416 1415 1413 1413 1414 1415 1416 1418 1420 1422 1425 1427 1431 1434 1438
1465 1464 1466 1467 1467 1469 1470 1471 1471 1470 1465 1453 1451 1451 1449 1447 1446 1444 1442 1440 1438 1436 1433 1431 1429 1427 1425 1422 1420 1417 1415 1414 1414 1415 1415 1417 1418 1420 1422 1425 1428 1431 1435 1439
1467 1465 1463 1465 1458 1461 1463 1461 1462 1463 1457 1449 1449 1448 1446 1444 1443 1442 1441 1439 1437 1435 1433 1431 1430 1428 1426 1423 1421 1419 1418 1417 1417 1417 1417 1418 1420 1422 1425 1428 1431 1434 1438 1442
1465 1465 1467 1455 1447 1450 1453 1453 1453 1451 1449 1447 1446 1445 1443 1442 1441 1440 1439 1438 1436 1435 1433 1432 1431 1429 1427 1426 1424 1422 1421 1420 1420 1420 1421 1422 1424 1426 1429 1433 1435 1438 1442 1445
1465 1466 1462 1451 1445 1447 1451 1449 1445 1447 1445 1444 1443 1443 1440 1440 1439 1439 1438 1437 1436 1435 1434 1433 1432 1430 1429 1428 1427 1426 1425 1424 1424 1425 1426 1427 1429 1431 1434 1437 1440 1442 1445 1448
1463 1464 1463 1449 1443 1442 1446 1445 1441 1442 1442 1442 1442 1443 1440 1439 1438 1437 1437 1436 1435 1435 1434 1434 1433 1432 1432 1431 1430 1429 1429 1429 1430 1431 1431 1433 1435 1437 1439 1442 1444 1446 1448 1450
1461 1462 1457 1446 1442 1444 1449 1445 1441 1440 1439 1439 1439 1439 1438 1437 1437 1436 1436 1436 1436 1435 1435 1435 1435 1435 1434 1434 1433 1434 1434 1434 1435 1436 1437 1439 1440 1442 1444 1446 1447 1449 1450 1451
1457 1460 1457 1441 1442 1443 1442 1439 1438 1437 1437 1436 1435 1435 1435 1435 1435 1435 1435 1436 1436 1436 1436 1437 1437 1437 1437 1437 1437 1438 1439 1439 1440 1441 1443 1444 1445 1447 1448 1449 1450 1451 1452 1453
1451 1449 1441 1439 1439 1438 1438 1437 1436 1435 1434 1433 1433 1432 1433 1434 1434 1435 1435 1436 1436 1437 1438 1438 1438 1439 1439 1440 1441 1442 1443 1444 1445 1446 1447 1448 1449 1450 1451 1452 1452 1453 1453 1454
1446 1440 1437 1436 1436 1435 1435 1434 1433 1433 1432 1430 1430 1430 1431 1432 1433 1434 1435 1436 1437 1438 1439 1440 1441 1442 1443 1444 1445 1446 1447 1448 1449 1450 1451 1452 1452 1453 1453 1454 1454 1454 1454 1453
1441 1437 1435 1432 1433 1433 1432 1431 1430 1430 1429 1428 1427 1428 1429 1430 1431 1433 1435 1436 1437 1439 1440 1442 1443 1444 1446 1447 1449 1450 1451 1452 1453 1453 1454 1454 1455 1455 1455 1455 1455 1454 1453 1453
1438 1435 1435 1433 1432 1431 1430 1429 1428 1427 1426 1425 1425 1425 1426 1428 1430 1432 1434 1436 1438 1440 1442 1443 1445 1447 1448 1450 1451 1452 1453 1454 1455 1455 1456 1456 1456 1456 1455 1455 1454 1453 1452 1452
1434 1433 1432 1431 1430 1429 1427 1426 1425 1424 1423 1422 1422 1423 1424 1426 1428 1431 1433 1435 1438 1440 1442 1444 1446 1448 1450 1452 1453 1454 1455 1456 1456 1457 1457 1457 1456 1456 1455 1455 1454 1453 1452 1450
1431 1430 1429 1428 1427 1425 1424 1423 1422 1421 1420 1420 1420 1421 1423 1424 1427 1429 1432 1434 1437 1440 1443 1445 1447 1449 1451 1453 1454 1455 1456 1457 1457 1457 1457 1457 1457 1456 1455 1454 1453 1452 1450 1449
1428 1428 1427 1425 1423 1422 1421 1420 1419 1418 1418 1418 1418 1419 1420 1422 1425 1427 1430 1433 1436 1439 1442 1445 1447 1450 1452 1453 1455 1456 1457 1457 1457 1457 1457 1457 1456 1455 1454 1453 1452 1450 1448 1447
1425 1424 1423 1421 1420 1419 1418 1417 1416 1415 1415 1416 1416 1417 1419 1421 1423 1426 1429 1432 1435 1438 1441 1444 1447 1450 1452 1453 1455 1456 1457 1457 1457 1457 1457 1456 1455 1454 1453 1452 1450 1448 1447 1445
1422 1420 1419 1417 1416 1415 1414 1414 1413 1413 1413 1413 1414 1415 1417 1419 1421 1424 1427 1430 1434 1437 1441 1444 1447 1449 1451 1453 1454 1455 1456 1456 1457 1456 1456 1455 1454 1453 1451 1450 1448 1447 1445 1443
1420 1419 1417 1415 1413 1412 1411 1410 1410 1410 1410 1411 1412 1413 1414 1416 1418 1421 1424 1428 1432 1435 1439 1442 1446 1448 1450 1452 1453 1454 1455 1455 1455 1455 1454 1453 1452 1451 1450 1448 1446 1444 1443 1441
1417 1415 1414 1412 1410 1409 1407 1406 1406 1406 1407 1408 1409 1410 1412 1414 1417 1420 1423 1426 1429 1433 1437 1440 1444 1447 1449 1451 1452 1453 1453 1454 1454 1453 1453 1452 1450 1449 1447 1446 1444 1442 1440 1438
1415 1413 1411 1409 1407 1406 1405 1404 1404 1404 1405 1406 1407 1408 1410 1412 1415 1418 1421 1424 1428 1432 1436 1439 1442 1445 1447 1449 1450 1451 1452 1452 1452 1451 1450 1449 1448 1447 1445 1443 1441 1439 1437 1435
1413 1411 1409 1407 1405 1404 1403 1402 1402 1402 1403 1404 1405 1406 1408 1410 1413 1416 1418 1422 1426 1430 1434 1437 1440 1443 1445 1447 1448 1449 1449 1449 1449 1449 1448 1447 1446 1444 1442 1441 1439 1437 1434 1432
1412 1409 1408 1406 1404 1403 1402 1402 1401 1401 1401 1402 1403 1405 1406 1408 1411 1414 1417 1421 1425 1428 1432 1435 1438 1441 1443 1445 1446 1447 1447 1447 1447 1446 1445 1444 1443 1441 1440 1438 1436 1434 1431 1429
1411 1409 1407 1405 1404 1403 1402 1401 1400 1400 1400 1401 1402 1403 1405 1407 1409 1412 1415 1419 1423 1426 1430 1433 1436 1439 1440 1442 1443 1444 1444 1444 1444 1443 1442 1441 1440 1438 1436 1434 1432 1430 1428 1426
1410 1408 1407 1405 1403 1402 1401 1400 1399 1399 1399 1400 1401 1402 1404 1405 1408 1411 1414 1417 1421 1424 1428 1431 1434 1436 1438 1439 1440 1441 1442 1441 1441 1440 1439 1438 1437 1435 1433 1431 1429 1427 1425 1423
1409 1407 1406 1404 1402 1401 1400 1399 1398 1398 1398 1398 1399 1400 1402 1404 1406 1409 1412 1415 1419 1422 1425 1428 1431 1433 1435 1436 1438 1438 1438 1438 1438 1437 1436 1435 1433 1431 1430 1428 1426 1424 1422 1420
1407 1405 1404 1402 1401 1400 1398 1397 1397 1396 1396 1396 1397 1398 1399 1401 1404 1407 1410 1413 1416 1419 1422 1425 1427 1430 1432 1433 1434 1435 1435 1435 1435 1434 1433 1431 1430 1428 1426 1425 1423 1421 1419 1417
1405 1403 1402 1401 1399 1398 1397 1395 1395 1394 1394 1394 1395 1396 1397 1399 1401 1403 1406 1409 1412 1415 1418 1421 1424 1426 1428 1430 1431 1432 1432 1432 1431 1430 1429 1428 1426 1425 1423 1421 1419 1418 1416 1414